sat.trackr.live / text

‹ back to catalog

STARLINK-34616

NORAD 66320 · 2025-253B

PAYLOAD ACTIVE UNKNOWN

§ Identity

Operator
Country
US
Launch date
2025-11-06
Launch site
AFETR
Launch vehicle
Mass (kg)
RCS (m²)

Purposes: comms

External: N2YO · Heavens-Above · Gunter

§ Orbital elements

Epoch: 2026-05-24T23:03:32.847840Z

Period
94.27 min
Inclination
42.9973°
Eccentricity
0.0001273
Mean motion
15.27600907 rev/d
Perigee alt
482.1 km
Apogee alt
483.9 km
Semi-major
6,861.1 km
B*
6.2477e-4
RAAN
141.3839°
Arg perigee
274.6490°
Mean anomaly
85.4217°
Rev number
3,199

§ Raw data

STARLINK-346161 66320U 25253B   26144.96079685  .00016981  00000+0  62477-3 0  99942 66320  42.9973 141.3839 0001273 274.6490  85.4217 15.27600907 31993

JSON: /api/v1/satellites/66320 · /tle

For live sub-satellite position, see the globe view (requires WebGL).

§ Visibility from observer

Set your observer location to see the next 7 days of passes ≥ 10°. The values pass through the URL so the page stays shareable.

No JS? Fill the form by hand. The geolocation button needs JavaScript.